AirNav   Air Wisconsin pilot careers
 
 1521 users online  

2R9 Karnes County Airport
Kenedy, Texas, USA


FAA INFORMATION EFFECTIVE 01 FEBRUARY 2018

Location

FAA Identifier: 2R9
Lat/Long: 28-49-29.9485N / 097-51-56.0460W
28-49.499142N / 097-51.934100W
28.8249857 / -97.8655683
(estimated)
Elevation: 288.7 ft. / 88.0 m (surveyed)
Variation: 05E (2010)
From city: 1 mile NW of KENEDY, TX
Time zone: UTC -6 (UTC -5 during Daylight Saving Time)
Zip code: 78119

Airport Operations

Airport use: Open to the public
Control tower: no
ARTCC: HOUSTON CENTER
FSS: SAN ANGELO FLIGHT SERVICE STATION
NOTAMs facility: SJT (NOTAM-D service available)
Attendance: MON-FRI DAYLIGHT HOURS
Wind indicator: lighted
Segmented circle: yes
Lights: MIRL RY 16/34 & TWY LGTS PRESET LOW INTST; TO INCR INTST ACTVT - CTAF.
Beacon: white-green (lighted land airport)
Operates sunset to sunrise.

Airport Communications

CTAF/UNICOM: 123.0
WX ASOS at NGT (18 nm SE): 353.675
  • APCH/DEP SERVICE PROVIDED BY HOUSTON ARTCC ON FREQS 134.6/322.5 (THREE RIVERS RCAG).

Nearby radio navigation aids

VOR radial/distance  VOR name  Freq  Var
THXr030/24.4THREE RIVERS VORTAC111.4008E
SSFr122/(39.9)STINSON VOR108.4009E

Airport Services

Fuel available: 100LL JET-A
Parking: tiedowns
Airframe service: MAJOR
Powerplant service: MAJOR

Runway Information

Runway 16/34

Dimensions: 3218 x 60 ft. / 981 x 18 m
Surface: asphalt, in fair condition
Weight bearing capacity: 
Single wheel: 11.0
Runway edge lights: medium intensity
Runway edge markings: MARKINGS FADED
RUNWAY 16  RUNWAY 34
Latitude: 28-49.760033N28-49.238250N
Longitude: 097-51.990067W097-51.878133W
Elevation: 288.7 ft.272.2 ft.
Gradient: 0.6%0.5% UP
Traffic pattern: rightleft
Runway heading: 164 magnetic, 169 true344 magnetic, 349 true
Markings: basic, in poor conditionbasic, in poor condition
Touchdown point: yes, no lightsyes, no lights
Obstructions: 34 ft. pole, 628 ft. from runway, 306 ft. left of centerline, 12:1 slope to clear
+6 FT DIRT ROAD 144 FT FM THLD.
31 ft. trees, 200 ft. from runway, 195 ft. left of centerline
+35 FT TREES 0-200 FT FM THLD AT 177-200 FT L, 5 FT FENCE 0-200 FT FM THLD & 105 FT-200 FT LEFT.

Airport Ownership and Management from official FAA records

Ownership: Publicly-owned
Owner: CITY OF KENEDY
303 W.MAIN
KENEDY, TX 78119
Phone 830-583-2230
Manager: RON HYDE
P.O. BOX 569
KENEDY, TX 78119
Phone (830) 583-5930

Airport Operational Statistics

Aircraft based on the field: 12
Single engine airplanes: 10
Multi engine airplanes: 2
    
Aircraft operations: avg 57/week *
67% local general aviation
33% transient general aviation
* for 12-month period ending 26 January 2017

Additional Remarks

DEER ON & INVOF ARPT (SEASONAL).
ACFT AIRFRAME & POWER PLANT REPAIRS ON CALL 830-299-2295.
SOUTH TWY CLSD.

Instrument Procedures

NOTE: All procedures below are presented as PDF files. If you need a reader for these files, you should download the free Adobe Reader.

NOT FOR NAVIGATION. Please procure official charts for flight.
FAA instrument procedures published for use between 1 February 2018 at 0901Z and 1 March 2018 at 0900Z.

 
IAPs - Instrument Approach Procedures
RNAV (GPS) RWY 16   download (166KB)
RNAV (GPS) RWY 34   download (162KB)
VOR/DME-A   download (139KB)
NOTE: Special Take-Off Minimums/Departure Procedures apply **CHANGED**   download (154KB)

Other nearby airports with instrument procedures:

KNGT - Goliad Naval Outlying Field (18 nm SE)
KBEA - Beeville Municipal Airport (28 nm S)
TX2 - Chase Field Industrial Airport (30 nm S)
8T6 - Live Oak County Airport (31 nm SW)
KPEZ - Pleasanton Municipal Airport (35 nm W)
 
Loc | Ops | Rwys | IFR | FBO | Links
Com | Nav | Svcs | Stats | Notes

AirNav Hotels Sweepstakes
 
Area around 2R9 (Karnes County Airport)
 
Road maps at: MapQuest Bing Google
 
Aerial photo
WARNING: Photo may not be current or correct
Aerial photo of 2R9 (Karnes County Airport)
Photo by Glenn Maleske
Taken late January 2010

Do you have a better or more recent aerial photo of Karnes County Airport that you would like to share? If so, please send us your photo.

 
Sectional chart

 
Airport distance calculator
Flying to Karnes County Airport? Find the distance to fly.

From to 2R9

Sunrise and sunset
Times for 23-Feb-2018
 Local
(UTC-6)
 Zulu
(UTC)
Morning civil twilight06:4012:40
Sunrise07:0413:04
Sunset18:2600:26
Evening civil twilight18:5000:50

Current date and time
Zulu (UTC)  23-Feb-2018 20:52:13
Local (UTC-6)  23-Feb-2018 14:52:13
 
METAR
KBEA 
28nm S 
232035Z AUTO 15015G20KT 10SM SCT023 BKN029 OVC049 26/20 A3003 RMK AO2 T02560196
KPEZ 
35nm W 
232035Z AUTO 17014G21KT 10SM BKN011 BKN015 OVC037 21/20 A3003 RMK AO2 T02140197
KSSF 
44nm NW 
232028Z 16010KT 10SM SCT015 BKN020 OVC050 23/19 A3001 RMK AO2 T02280194
KRND 
47nm NW 
232036Z 16014KT 10SM BKN016 BKN023 OVC055 22/19 A3003 RMK AO2A CIG 015 RWY15R CIG 015 RWY33R SLP167
KT20 
47nm NE 
232035Z AUTO 17009KT 10SM BKN019 BKN046 BKN060 24/21 A3004 RMK AO2 T02440207
KVCT 
49nm E 
231951Z 15020KT 10SM BKN030 27/18 A3007 RMK AO2 SLP181 T02670178
KSKF 
49nm NW 
232036Z AUTO 15011KT 10SM BKN010 20/20 A3002 RMK AO2 SLP164 $
TAF
KSSF 
44nm NW 
232015Z 2320/2418 15009KT P6SM OVC012 FM240400 13006KT 1SM BR OVC003 FM241600 16007KT 2SM BR OVC004
KRND 
47nm NW 
232030Z 2320/2424 10009KT 9999 OVC010 QNH3003INS BECMG 2400/2401 13006KT 6000 BR OVC007 QNH3003INS BECMG 2408/2409 17006KT 1600 -SHRA BR OVC002 QNH2991INS BECMG 2412/2413 20009KT 2400 -RA BR OVC005 QNH2991INS BECMG 2420/2421 30010G15KT 9999 NSW SCT025 QNH2990INS TX23/2320Z TN20/2409Z LAST NO AMDS AFT 2401 NEXT 2410
KVCT 
49nm E 
231902Z 2319/2418 14015G25KT P6SM SCT025 TEMPO 2319/2323 BKN025 FM240000 14009KT 4SM BR BKN007 OVC012 FM240800 15007KT 1SM BR BKN005 OVC010
KSKF 
49nm NW 
231930Z 2319/2424 07009KT 9999 OVC005 QNH3003INS BECMG 2319/2320 14009KT 9999 OVC007 QNH2992INS BECMG 2400/2401 13006KT 6000 BR OVC005 QNH3003INS BECMG 2408/2409 17006KT 1600 -SHRA BR OVC002 QNH2991INS BECMG 2412/2413 20009KT 2400 -RA BR OVC005 QNH2991INS BECMG 2418/2419 30010G15KT 9999 NSW SCT025 QNH2990INS TX23/2322Z TN19/2409Z
NOTAMs
Click for the latest NOTAMs
NOTAMs are issued by the DoD/FAA and will open in a separate window not controlled by AirNav.

 

 
 

FBO, Fuel Providers, and Aircraft Ground Support

  
 Business Name 
 
 Contact 
 
 Services / Description 
 
Fuel Prices
 
Comments
  
Stetson Aviation, Inc. 830-583-9884
830-583-5930
[web site]
[email]
Aviation fuel, Aircraft ground handling, Aircraft parking (ramp or tiedown), Hangar leasing / sales, GPU / Power cart, Passenger terminal and lounge, ...

More info about Stetson Aviation, Inc.
Avfuel
100LL Jet A
SS $4.20 $3.50 
 Updated 31-Jan-2018
 
   2 read write
SS=Self service
Update Fuel Prices
 

Where to Eat: Catering, Restaurants, Food shops

  
 Business Name 
 
 Contact 
 
 Services / Description 
 
Distance
 
Comments
  
Barth's Restaurant 830-583-2468
no information available

If you are affiliated with Barth's Restaurant and would like to show here your services, contact info, web link, logo, and more, click here
0.2 miles  
   write
 

Would you like to see your business listed on this page?

 If your business provides an interesting product or service to pilots, flight crews, aircraft, or users of the Karnes County Airport, you should consider listing it here.  To start the listing process, click on the button below
 
Add a business
 

Other Pages about Karnes County Airport

Update a link
 
Copyright © AirNav, LLC. All rights reserved. Privacy Policy  Contact